Regional Weather Roundup
Issued by NWS

Home | Current Version | Previous Version | Graphics & Text | Print | Product List | Glossary On
Versions: 1 2 3 4 5 6 7 8 9 10 11 12 13 14 15 16 17 18 19 20 21 22 23 24 25 26 27 28 29 30 31 32 33 34 35 36 37 38 39 40 41 42 43 44 45 46 47 48 49 50
000
ASUS45 KBOU 152007
RWRCO

WEATHER ROUNDUP FOR COLORADO
NATIONAL WEATHER SERVICE DENVER/BOULDER CO
200 PM MDT MON SEP 15 2014

NOTE: "FAIR" INDICATES FEW OR NO CLOUDS BELOW 12000 FEET WITH NO
SIGNIFICANT WEATHER AND/OR OBSTRUCTIONS TO VISIBILITY.

COZ001>005-013-030-031-152100-
...NORTHWEST COLORADO...

CITY           SKY/WX    TMP DP  RH WIND       PRES   REMARKS
CRAIG          SUNNY     81  36  19 VRB3      30.26F
HAYDEN         MOSUNNY   79  30  17 NW9G16    30.28F
MEEKER         MOSUNNY   78  35  21 SW9       30.27F
MOUNT WERNER   NOT AVBL
STEAMBOAT SPGS MOSUNNY   75  33  21 SW7       30.30F
WALDEN         CLOUDY    70  30  23 S7        30.39F
$$

COZ006>008-011-152100-
...WEST CENTRAL VALLEYS...

CITY           SKY/WX    TMP DP  RH WIND       PRES   REMARKS
GRAND JUNCTION MOSUNNY   83  38  20 SW3       30.16F
MONTROSE       MOSUNNY   85  33  15 W6        30.23F
EAGLE          MOSUNNY   79  37  22 CALM      30.29F
RIFLE          PTSUNNY   81  35  19 N5        30.21F
DELTA          MOSUNNY   87  37  17 CALM      30.19F
NUCLA          NOT AVBL
$$

COZ017>023-064>068-152100-
...SOUTHWEST COLORADO...

CITY           SKY/WX    TMP DP  RH WIND       PRES   REMARKS
DURANGO        MOSUNNY   79  30  16 NW6       30.27F
CORTEZ         SUNNY     84  36  18 CALM      30.23F
PAGOSA SPRINGS MOSUNNY   77  22  12 W6        30.35F
TELLURIDE      NOT AVBL
WOLF CREEK PAS MOSUNNY   54  34  47 S8        30.66F
$$

COZ009-010-012-014-032>034-037-058>063-152100-
...CENTRAL COLORADO...

CITY           SKY/WX    TMP DP  RH WIND       PRES   REMARKS
ASPEN          MOSUNNY   73  29  19 N12G17    30.35F
BUENA VISTA    MOSUNNY   72  25  17 CALM      30.37F
COPPER MTN     MOSUNNY   59  25  27 SE16      30.67F
BERTHOUD PASS  PTSUNNY   52  50  93 N6        30.71F
COTTONWOOD PAS PTSUNNY   68  21  17 CALM      30.52F
GUNNISON       MOSUNNY   73  32  21 W6        30.39F
KREMMLING      PTSUNNY   73  25  16 N6        30.35F
LEADVILLE      CLOUDY    62  28  27 N12G18    30.51F
MONARCH PASS   PTSUNNY   54  28  37 S3        30.78F
SALIDA         MOSUNNY   78  32  18 E16G23    30.41F
SUNLIGHT       TSTM      59  39  47 CALM      30.62S
WILKERSON PASS NOT AVBL
$$

COZ069>075-152100-
...SAN LUIS VALLEY/SANGRE DE CRISTO MOUNTAINS...

CITY           SKY/WX    TMP DP  RH WIND       PRES   REMARKS
ALAMOSA        SUNNY     76  35  22 MISG      30.34F
LA VETA PASS   NOT AVBL
SAGUACHE       NOT AVBL
$$

COZ035-036-038>040-152100-
...NORTHERN COLORADO FRONT RANGE...

CITY           SKY/WX    TMP DP  RH WIND       PRES   REMARKS
DENVER INTL AP MOSUNNY   68  47  46 VRB6      30.31F
DMNS CITY PARK   N/A     70  40  33 SE3G10    30.30F
AURORA         MOSUNNY   69  42  37 E5        30.31F
FRONT RANGE AP NOT AVBL
ERIE MUNI ARPT SUNNY     69  39  32 SE6       30.30F
BOULDER MUN AP SUNNY     70  41  35 SE6       30.30F
CENTENNIAL     MOSUNNY   69  41  36 VRB5      30.31F
BROOMFIELD     MOSUNNY   68  39  34 E5        30.33F
FORT COLLINS   SUNNY     68  43  40 S8        30.31F
LONGMONT       SUNNY     73  41  32 S6        30.31F
$$

COZ041-046-047-076>085-087-088-152100-
...PIKES PEAK/PALMER DIVIDE AND SOUTHERN FOOTHILLS...

CITY           SKY/WX    TMP DP  RH WIND       PRES   REMARKS
COLO. SPRINGS  PTSUNNY   67  48  50 SE18G28   30.37F
A. F. ACADEMY  MOSUNNY   67  48  50 S18       30.37F
ELLICOTT       NOT AVBL
FALCON         MOSUNNY   66  47  51 S12G20    30.41F
FORT CARSON    MOSUNNY   67  50  54 SE14G21   30.36F
LIMON          PTSUNNY   62  50  64 SE7       30.35F
MONUMENT HILL  SUNNY     68  45  42 SE13G21   30.38S
TRINIDAD       CLOUDY    60  50  69 VRB5      30.37F
$$

COZ042>045-048>051-090-091-152100-
...NORTHEAST COLORADO...

CITY           SKY/WX    TMP DP  RH WIND       PRES   REMARKS
GREELEY ARPT   SUNNY     70  43  37 SE7       30.30F
AKRON          SUNNY     64  47  53 SE13      30.32F
BURLINGTON     CLOUDY    56  49  77 VRB5      30.34S
WRAY           SUNNY     67  45  45 SE8       30.31F
STERLING       SUNNY     70  48  46 SE7       30.29F
HOLYOKE        SUNNY     66  45  45 SE5       30.31F
FORT MORGAN    MOSUNNY   67  47  48 SE9G17    30.31F
$$

COZ086-089-092>099-152100-
...SOUTHEAST COLORADO...

CITY           SKY/WX    TMP DP  RH WIND       PRES   REMARKS
PUEBLO         CLOUDY    69  51  52 VRB6      30.32F
LA JUNTA       CLOUDY    65  53  65 E10       30.32F
LAMAR          CLOUDY    61  53  75 NE12      30.30S
SPRINGFIELD      N/A     59  55  87 NE15      30.30S
$$



USA.gov is the U.S. government's official web portal to all federal, state and local government web resources and services.